[[{"header":{"parameterUnit":"m.s-1","parameterCategory":1,"la1":30.2991,"la2":30.254,"lo1":-89.0895,"lo2":-89.0444,"dy":0.0017,"dx":0.0017,"nx":28,"ny":28,"refTime":"2025-08-01T21:00:00:Z","depth":0,"parameterNumber":2,"parameterNumberName":"U-component_of_WINDS"},"data":[0,0,0,0,0,0,0,0,0,0,0,0,0,0,0,0,0,0,0,0,0,0,0,0,0,0,0,0,0,0,0,0,0,0,0,0,0,0,0,0,0,0,0,0,0,0,0,0,0,0,0,0,0,0,0,0,0,0,1.4108,1.4109,0,1.4166,1.4166,1.4167,1.4177,1.4177,1.4176,1.4176,1.4236,1.4238,1.424,0,0,0,0,0,0,0,0,0,0,0,0,0,1.4009,1.4011,1.4108,1.4109,1.411,1.4166,1.4167,1.4167,1.4177,1.4177,1.4176,1.4176,1.4235,1.4238,1.424,0,0,0,0,0,0,0,0,0,0,0,0,0,1.4058,1.4012,1.4108,1.4121,1.4123,1.4166,1.4167,1.4168,1.4177,1.4177,1.4176,1.4175,1.4234,1.4237,1.424,1.4274,0,0,1.425,1.4251,0,0,0,0,0,0,0,0,1.4055,1.4062,1.4119,1.4121,1.4123,1.4164,1.4154,1.4203,1.4178,1.4157,1.4176,1.4175,1.4212,1.4217,1.423,1.4277,1.4279,1.425,1.4252,1.4253,1.4254,0,0,0,0,0,0,0,1.4052,1.4059,1.4131,1.412,1.4122,1.4125,1.4131,1.4163,1.4188,1.4159,1.4159,1.4166,1.4213,1.4227,1.4231,1.428,1.425,1.4253,1.4255,1.4256,1.4359,1.4359,0,0,0,0,0,0,1.4046,1.4056,1.4129,1.4133,1.4086,1.4128,1.4134,1.4151,1.4188,1.4193,1.4167,1.4166,1.4222,1.4228,1.4233,1.4275,1.4253,1.4256,1.4258,1.4358,1.4359,1.436,0,0,0,0,0,0,1.4044,1.4052,1.4127,1.4095,1.4105,1.413,1.4149,1.4153,1.4166,1.4194,1.4198,1.4175,1.4221,1.4229,1.4264,1.4278,1.4258,1.426,1.4357,1.4358,1.4359,1.4359,0,0,0,0,0,0,1.4041,1.4051,1.4064,1.4095,1.4106,1.4156,1.415,1.4154,1.4171,1.4171,1.4203,1.4208,1.4221,1.4259,1.4267,1.4282,1.4263,1.4356,1.4357,1.4359,1.4358,1.4361,1.4363,0,0,0,0,0,1.4037,1.4062,1.4064,1.4073,1.4122,1.4157,1.4163,1.4178,1.4172,1.4185,1.4203,1.4207,1.4275,1.4263,1.4271,1.4287,1.4355,1.4357,1.4359,1.4357,1.436,1.4363,0,0,0,0,0,0,1.4032,1.4066,1.4069,1.4105,1.4128,1.4158,1.4175,1.418,1.4206,1.4205,1.4222,1.4229,1.4263,1.4279,1.4265,1.4322,1.4315,1.4318,1.4311,1.4313,1.4316,1.4311,1.4265,0,0,0,0,0,1.4035,1.4059,1.4088,1.4116,1.4128,1.415,1.4165,1.4174,1.4199,1.4209,1.4229,1.4254,1.4281,1.4298,1.4324,1.4361,1.4368,1.4376,1.4378,1.438,1.4383,1.4404,1.4408,1.4366,1.4366,1.4366,0,0,1.4041,1.4063,1.4077,1.4116,1.4135,1.416,1.4158,1.4185,1.4204,1.4213,1.4247,1.4263,1.4292,1.4328,1.4345,1.4342,1.4396,1.4382,1.4383,1.4386,1.4407,1.441,1.4414,1.4368,1.4367,1.4367,0,0,1.4065,1.4084,1.411,1.4129,1.4158,1.4172,1.4178,1.4209,1.4219,1.4254,1.4262,1.4285,1.4331,1.4351,1.4367,1.44,1.4405,1.4408,1.4419,1.444,1.4443,1.4446,1.4458,1.4462,1.4411,1.4411,1.4411,0,1.407,1.4108,1.4123,1.415,1.4167,1.4176,1.4203,1.4221,1.4257,1.4269,1.4265,1.4323,1.4343,1.4384,1.4392,1.4405,1.4413,1.4405,1.4441,1.4444,1.4448,1.4459,1.4464,1.4412,1.4412,1.4412,1.4412,0,1.4112,1.4138,1.4156,1.419,1.4209,1.4236,1.4256,1.4274,1.4282,1.4297,1.4332,1.4356,1.4388,1.4398,1.4406,1.4441,1.4438,1.4438,1.443,1.4451,1.4463,1.4467,1.4412,1.4412,1.4412,1.4412,0,0,1.4134,1.4176,1.4183,1.4199,1.4231,1.4252,1.428,1.431,1.4326,1.435,1.4374,1.4413,1.4413,1.4431,1.4442,1.446,1.4485,1.4457,1.4458,1.4462,1.4525,1.4525,1.453,1.4489,1.4489,1.449,1.4523,0,1.4162,1.4211,1.4226,1.4267,1.4292,1.4302,1.4326,1.4349,1.4364,1.4388,1.4405,1.4432,1.443,1.4441,1.4459,1.4478,1.4498,1.4476,1.4511,1.4513,1.4504,1.4536,1.4536,1.4566,1.4527,1.4528,1.4529,0,1.4202,1.4227,1.427,1.43,1.4312,1.4333,1.4362,1.4385,1.4412,1.4422,1.4443,1.4452,1.4482,1.4473,1.4515,1.45,1.4515,1.4527,1.4528,1.4532,1.4522,1.4541,1.4576,1.458,1.4536,1.4535,1.4535,0,1.4214,1.4259,1.4291,1.4304,1.434,1.4355,1.437,1.4396,1.4414,1.444,1.4452,1.4481,1.4497,1.452,1.4538,1.453,1.4578,1.4571,1.4588,1.4587,1.4597,1.4596,1.4635,1.4607,1.4607,1.4607,1.4607,0,1.4244,1.427,1.4296,1.4316,1.4346,1.4363,1.4393,1.4409,1.4432,1.4456,1.4467,1.4489,1.451,1.4535,1.4549,1.4582,1.4589,1.4598,1.4602,1.4597,1.4596,1.4608,1.4606,1.4608,1.4608,1.4608,1.4608,0,1.4262,1.4281,1.4316,1.4347,1.4356,1.4377,1.4404,1.4424,1.4439,1.4469,1.4477,1.4502,1.4532,1.4552,1.459,1.46,1.4636,1.4638,1.4626,1.4628,1.4644,1.4642,1.4691,1.4699,1.4666,1.4666,1.4666,0,1.428,1.4301,1.4334,1.435,1.4366,1.4392,1.441,1.4428,1.4447,1.4479,1.4495,1.4526,1.4552,1.46,1.4622,1.4651,1.4655,1.467,1.466,1.4655,1.4656,1.4654,1.4657,1.4672,1.4672,1.4672,1.4673,0,1.431,1.4319,1.4344,1.4373,1.4394,1.4418,1.4441,1.4454,1.4477,1.4497,1.4528,1.4548,1.4587,1.4618,1.465,1.4667,1.4674,1.4676,1.4681,1.4677,1.467,1.4674,1.4631,1.4675,1.4674,1.4674,1.4674,1.4674,1.4329,1.4348,1.4374,1.4403,1.4422,1.4444,1.4465,1.4483,1.4509,1.4542,1.4551,1.4584,1.4611,1.4654,1.4672,1.4698,1.4696,1.4704,1.4706,1.4708,1.4708,1.4665,1.4704,1.4704,1.4704,1.4704,1.4704,0,1.436,1.4378,1.4403,1.4436,1.4459,1.4463,1.4489,1.4508,1.4536,1.4561,1.4586,1.4621,1.4652,1.4676,1.4707,1.4723,1.4727,1.4731,1.473,1.4734,1.4708,1.47,1.4727,1.4727,1.4727,1.4727,1.4727,1.4727,1.4379,1.4411,1.4423,1.4465,1.4483,1.4514,1.4529,1.455,1.4569,1.4609,1.4634,1.4649,1.4674,1.4707,1.4735,1.4742,1.4753,1.4756,1.4763,1.4738,1.4736,1.4733,1.4726,1.4758,1.4758,1.4787,1.4787,1.4788]},{"header":{"parameterUnit":"m.s-1","parameterCategory":1,"la1":30.2991,"la2":30.254,"lo1":-89.0895,"lo2":-89.0444,"dy":0.0017,"dx":0.0017,"nx":28,"ny":28,"refTime":"2025-08-01T21:00:00:Z","depth":0,"parameterNumber":3,"parameterNumberName":"V-component_of_WINDS"},"data":[0,0,0,0,0,0,0,0,0,0,0,0,0,0,0,0,0,0,0,0,0,0,0,0,0,0,0,0,0,0,0,0,0,0,0,0,0,0,0,0,0,0,0,0,0,0,0,0,0,0,0,0,0,0,0,0,0,0,-1.5044,-1.5045,0,-1.5096,-1.5097,-1.5098,-1.5108,-1.5108,-1.5108,-1.5107,-1.516,-1.5162,-1.5164,0,0,0,0,0,0,0,0,0,0,0,0,0,-1.4956,-1.4958,-1.5044,-1.5045,-1.5046,-1.5096,-1.5097,-1.5098,-1.5108,-1.5108,-1.5107,-1.5107,-1.516,-1.5162,-1.5164,0,0,0,0,0,0,0,0,0,0,0,0,0,-1.5,-1.4958,-1.5044,-1.5057,-1.5059,-1.5096,-1.5097,-1.5098,-1.5108,-1.5108,-1.5107,-1.5107,-1.5159,-1.5162,-1.5164,-1.5193,0,0,-1.5172,-1.5174,0,0,0,0,0,0,0,0,-1.4997,-1.5003,-1.5055,-1.5056,-1.5058,-1.5095,-1.5085,-1.513,-1.5109,-1.509,-1.5107,-1.5106,-1.5139,-1.5143,-1.5154,-1.5195,-1.5197,-1.5173,-1.5174,-1.5176,-1.5176,0,0,0,0,0,0,0,-1.4994,-1.5001,-1.5065,-1.5055,-1.5058,-1.5061,-1.5066,-1.5094,-1.5117,-1.5091,-1.5092,-1.5098,-1.514,-1.5152,-1.5156,-1.5198,-1.5173,-1.5175,-1.5177,-1.5178,-1.5267,-1.5268,0,0,0,0,0,0,-1.4989,-1.4998,-1.5063,-1.5067,-1.5026,-1.5063,-1.5069,-1.5084,-1.5117,-1.5121,-1.5099,-1.5098,-1.5148,-1.5153,-1.5158,-1.5194,-1.5175,-1.5178,-1.518,-1.5266,-1.5267,-1.5268,0,0,0,0,0,0,-1.4987,-1.4995,-1.5061,-1.5033,-1.5041,-1.5065,-1.5082,-1.5085,-1.5097,-1.5122,-1.5127,-1.5106,-1.5147,-1.5154,-1.5184,-1.5196,-1.5179,-1.5182,-1.5265,-1.5267,-1.5268,-1.5266,0,0,0,0,0,0,-1.4984,-1.4994,-1.5004,-1.5033,-1.5043,-1.5086,-1.5082,-1.5087,-1.5102,-1.5102,-1.5131,-1.5135,-1.5147,-1.518,-1.5187,-1.5199,-1.5184,-1.5264,-1.5266,-1.5267,-1.5265,-1.5267,-1.5269,0,0,0,0,0,-1.4981,-1.5001,-1.5005,-1.5012,-1.5056,-1.5087,-1.5093,-1.5107,-1.5102,-1.5114,-1.513,-1.5134,-1.5194,-1.5183,-1.5191,-1.5204,-1.5264,-1.5265,-1.5267,-1.5264,-1.5267,-1.5269,0,0,0,0,0,0,-1.4972,-1.5005,-1.5009,-1.5039,-1.506,-1.5089,-1.5103,-1.5108,-1.5131,-1.513,-1.5147,-1.5153,-1.5183,-1.5197,-1.5184,-1.5235,-1.5229,-1.5232,-1.5224,-1.5226,-1.5228,-1.5224,-1.5186,0,0,0,0,0,-1.4974,-1.4996,-1.5023,-1.5047,-1.5058,-1.5079,-1.5092,-1.5102,-1.5124,-1.5133,-1.5152,-1.5174,-1.5198,-1.5213,-1.5236,-1.5268,-1.5275,-1.5281,-1.5283,-1.5284,-1.5287,-1.5306,-1.5309,-1.5274,-1.5274,-1.5274,0,0,-1.4977,-1.4998,-1.5011,-1.5046,-1.5063,-1.5086,-1.5086,-1.5109,-1.5127,-1.5137,-1.5166,-1.5181,-1.5207,-1.5239,-1.5254,-1.5251,-1.5298,-1.5286,-1.5287,-1.5289,-1.5308,-1.5311,-1.5314,-1.5275,-1.5275,-1.5274,0,0,-1.4995,-1.5013,-1.5035,-1.5053,-1.508,-1.5094,-1.51,-1.5128,-1.5138,-1.5169,-1.5177,-1.5199,-1.5239,-1.5258,-1.5273,-1.5301,-1.5305,-1.5308,-1.5317,-1.5335,-1.5338,-1.5341,-1.5351,-1.5355,-1.5311,-1.5311,-1.5311,0,-1.4996,-1.503,-1.5046,-1.507,-1.5086,-1.5097,-1.512,-1.5137,-1.517,-1.5181,-1.5178,-1.5231,-1.5249,-1.5286,-1.5293,-1.5304,-1.5312,-1.5304,-1.5336,-1.5339,-1.5342,-1.5352,-1.5356,-1.5311,-1.5311,-1.5311,-1.5311,0,-1.503,-1.5054,-1.5069,-1.5102,-1.5119,-1.5143,-1.5163,-1.5179,-1.5188,-1.5203,-1.5235,-1.5258,-1.5286,-1.5296,-1.5304,-1.5335,-1.5333,-1.5333,-1.5327,-1.5345,-1.5355,-1.5359,-1.5311,-1.5311,-1.5311,-1.5311,0,0,-1.5041,-1.5084,-1.5089,-1.5105,-1.5137,-1.5156,-1.5181,-1.521,-1.5224,-1.5247,-1.5269,-1.5305,-1.5306,-1.5323,-1.5334,-1.535,-1.5372,-1.5349,-1.535,-1.5353,-1.5409,-1.5408,-1.5412,-1.5376,-1.5377,-1.5378,-1.5407,0,-1.5063,-1.5108,-1.5124,-1.5161,-1.5184,-1.5196,-1.5218,-1.5241,-1.5256,-1.5278,-1.5296,-1.5321,-1.532,-1.5331,-1.5348,-1.5366,-1.5384,-1.5364,-1.5397,-1.5398,-1.539,-1.5417,-1.5416,-1.5442,-1.5411,-1.5411,-1.5412,0,-1.5094,-1.5118,-1.5158,-1.5189,-1.5199,-1.5218,-1.5247,-1.5268,-1.5295,-1.5305,-1.5325,-1.5335,-1.5363,-1.5357,-1.5396,-1.5383,-1.5398,-1.5409,-1.5411,-1.5414,-1.5405,-1.5421,-1.5451,-1.5455,-1.5418,-1.5418,-1.5417,0,-1.5099,-1.5142,-1.5171,-1.5184,-1.5221,-1.5234,-1.525,-1.5276,-1.5293,-1.5319,-1.533,-1.5359,-1.5374,-1.5397,-1.5415,-1.5409,-1.5453,-1.5448,-1.5463,-1.5463,-1.5471,-1.547,-1.5503,-1.5481,-1.5481,-1.5481,-1.5481,0,-1.5121,-1.5145,-1.5174,-1.5192,-1.522,-1.5239,-1.5266,-1.5283,-1.5306,-1.5329,-1.5341,-1.5362,-1.5385,-1.5409,-1.5424,-1.5455,-1.5462,-1.5472,-1.5475,-1.547,-1.5469,-1.548,-1.5478,-1.5482,-1.5482,-1.5481,-1.5481,0,-1.513,-1.5151,-1.5184,-1.5217,-1.5226,-1.5245,-1.5273,-1.5292,-1.5309,-1.5337,-1.5345,-1.5371,-1.5401,-1.5422,-1.5459,-1.5469,-1.5503,-1.5506,-1.5494,-1.5495,-1.5509,-1.5508,-1.555,-1.5557,-1.553,-1.553,-1.5531,0,-1.5143,-1.5161,-1.5197,-1.5213,-1.5229,-1.5254,-1.5272,-1.5293,-1.5311,-1.5344,-1.5359,-1.539,-1.5415,-1.5462,-1.5485,-1.5514,-1.5519,-1.5532,-1.5523,-1.5518,-1.5519,-1.5518,-1.552,-1.5532,-1.5533,-1.5533,-1.5533,0,-1.5163,-1.5173,-1.5198,-1.5228,-1.5249,-1.5273,-1.5297,-1.531,-1.5335,-1.5355,-1.5385,-1.5405,-1.5445,-1.5475,-1.5508,-1.5525,-1.5534,-1.5536,-1.5541,-1.5536,-1.5528,-1.5533,-1.5497,-1.5534,-1.5534,-1.5534,-1.5534,-1.5534,-1.5175,-1.5192,-1.5221,-1.5249,-1.527,-1.5293,-1.5312,-1.5332,-1.5358,-1.5392,-1.5403,-1.5435,-1.5463,-1.5507,-1.5526,-1.5552,-1.5551,-1.5558,-1.556,-1.5561,-1.5561,-1.5524,-1.5558,-1.5558,-1.5558,-1.5558,-1.5558,0,-1.5196,-1.5215,-1.5241,-1.5275,-1.5298,-1.5305,-1.5333,-1.5351,-1.5379,-1.5405,-1.543,-1.5467,-1.5497,-1.5523,-1.5555,-1.5571,-1.5576,-1.5579,-1.5577,-1.5581,-1.556,-1.5552,-1.5574,-1.5574,-1.5574,-1.5574,-1.5574,-1.5574,-1.5209,-1.524,-1.5254,-1.5296,-1.5316,-1.5347,-1.5363,-1.5385,-1.5405,-1.5445,-1.5471,-1.5488,-1.5514,-1.5549,-1.5577,-1.5585,-1.5596,-1.5598,-1.5606,-1.5585,-1.5583,-1.5581,-1.5574,-1.56,-1.56,-1.5625,-1.5625,-1.5626]}]]